www.cux-wetter.de
Wetterdaten: Mittwoch, 24.07.2013
Datum Zeit Temp. A. Feuchte A. Luftdruck Regen Wind Richtung Richtung Sonnenschein Solar Taupunkt Windchill Windben
24.07.2013 00:15 21,6 C 66 % 1013,5 hPa 0,0 l/m 12,9 km/h (3 Bft) S-SO 160 0 min 0 W/m 15,0 C 19,7 C 12,9 km/h (3 Bft)
24.07.2013 00:29 21,3 C 67 % 1013,5 hPa 0,0 l/m 12,5 km/h (2 Bft) SO 145 0 min 0 W/m 14,9 C 19,4 C 12,5 km/h (2 Bft)
24.07.2013 00:45 21,2 C 67 % 1013,5 hPa 0,0 l/m 14,4 km/h (3 Bft) S-SW 195 0 min 0 W/m 14,8 C 18,8 C 14,4 km/h (3 Bft)
24.07.2013 01:00 21,0 C 68 % 1013,5 hPa 0,0 l/m 12,8 km/h (3 Bft) S 170 0 min 0 W/m 14,9 C 19,0 C 12,8 km/h (3 Bft)
24.07.2013 01:15 21,0 C 69 % 1013,5 hPa 0,0 l/m 21,1 km/h (4 Bft) S-SO 160 0 min 0 W/m 15,1 C 17,3 C 21,1 km/h (4 Bft)
24.07.2013 01:29 21,0 C 69 % 1013,5 hPa 0,0 l/m 18,0 km/h (3 Bft) S 170 0 min 0 W/m 15,1 C 17,9 C 18,0 km/h (3 Bft)
24.07.2013 01:45 21,0 C 70 % 1013,5 hPa 0,0 l/m 12,1 km/h (2 Bft) S-SO 155 0 min 0 W/m 15,3 C 19,2 C 12,1 km/h (2 Bft)
24.07.2013 02:00 20,8 C 69 % 1013,5 hPa 0,0 l/m 15,9 km/h (3 Bft) S 175 0 min 0 W/m 14,9 C 18,0 C 15,9 km/h (3 Bft)
24.07.2013 02:15 20,7 C 69 % 1013,5 hPa 0,0 l/m 17,0 km/h (3 Bft) S-SW 195 0 min 0 W/m 14,8 C 17,7 C 17,0 km/h (3 Bft)
24.07.2013 02:30 20,6 C 69 % 1013,5 hPa 0,0 l/m 16,1 km/h (3 Bft) S 175 0 min 0 W/m 14,7 C 17,7 C 16,1 km/h (3 Bft)
24.07.2013 02:45 20,4 C 69 % 1013,5 hPa 0,0 l/m 14,0 km/h (3 Bft) S-SW 195 0 min 0 W/m 14,5 C 18,0 C 14,0 km/h (3 Bft)
24.07.2013 03:00 20,3 C 69 % 1013,5 hPa 0,0 l/m 18,4 km/h (3 Bft) S 175 0 min 0 W/m 14,4 C 16,9 C 18,4 km/h (3 Bft)
24.07.2013 03:14 20,2 C 69 % 1013,5 hPa 0,0 l/m 23,0 km/h (4 Bft) S 170 0 min 0 W/m 14,3 C 16,0 C 23,0 km/h (4 Bft)
24.07.2013 03:30 20,0 C 69 % 1013,5 hPa 0,0 l/m 19,1 km/h (3 Bft) S 180 0 min 0 W/m 14,1 C 16,4 C 19,1 km/h (3 Bft)
24.07.2013 03:45 20,0 C 68 % 1013,5 hPa 0,0 l/m 19,5 km/h (3 Bft) S 185 0 min 0 W/m 13,9 C 16,3 C 19,5 km/h (3 Bft)
24.07.2013 04:00 19,8 C 69 % 1013,5 hPa 0,0 l/m 17,3 km/h (3 Bft) S-SO 155 0 min 0 W/m 13,9 C 16,5 C 17,3 km/h (3 Bft)
24.07.2013 04:15 19,7 C 69 % 1013,5 hPa 0,0 l/m 17,8 km/h (3 Bft) S 180 0 min 0 W/m 13,8 C 16,3 C 17,8 km/h (3 Bft)
24.07.2013 04:30 19,6 C 69 % 1013,5 hPa 0,0 l/m 16,5 km/h (3 Bft) S-SW 195 0 min 0 W/m 13,8 C 16,4 C 16,5 km/h (3 Bft)
24.07.2013 04:45 19,5 C 70 % 1013,5 hPa 0,0 l/m 13,6 km/h (3 Bft) S-SO 165 0 min 0 W/m 13,9 C 17,0 C 13,6 km/h (3 Bft)
24.07.2013 05:00 19,4 C 69 % 1013,5 hPa 0,0 l/m 18,8 km/h (3 Bft) S-SW 195 0 min 0 W/m 13,6 C 15,7 C 18,8 km/h (3 Bft)
24.07.2013 05:15 19,4 C 69 % 1013,5 hPa 0,0 l/m 16,2 km/h (3 Bft) S 170 0 min 0 W/m 13,6 C 16,2 C 16,2 km/h (3 Bft)
24.07.2013 05:30 19,2 C 69 % 1013,5 hPa 0,0 l/m 17,5 km/h (3 Bft) S 170 0 min 0 W/m 13,4 C 15,7 C 17,5 km/h (3 Bft)
24.07.2013 05:45 19,1 C 69 % 1013,5 hPa 0,0 l/m 13,8 km/h (3 Bft) S-SO 165 0 min 0 W/m 13,3 C 16,5 C 13,8 km/h (3 Bft)
24.07.2013 06:00 19,0 C 69 % 1012,5 hPa 0,0 l/m 14,5 km/h (3 Bft) S 175 0 min 0 W/m 13,2 C 16,2 C 14,5 km/h (3 Bft)
24.07.2013 06:15 18,9 C 68 % 1013,5 hPa 0,0 l/m 20,6 km/h (4 Bft) S 180 0 min 0 W/m 12,9 C 14,7 C 20,6 km/h (4 Bft)
24.07.2013 06:30 18,8 C 68 % 1013,5 hPa 0,0 l/m 18,8 km/h (3 Bft) S 180 0 min 0 W/m 12,8 C 14,9 C 18,8 km/h (3 Bft)
24.07.2013 06:45 18,9 C 68 % 1013,5 hPa 0,0 l/m 12,1 km/h (2 Bft) S 190 0 min 0 W/m 12,9 C 16,7 C 12,1 km/h (2 Bft)
24.07.2013 07:00 18,9 C 69 % 1013,5 hPa 0,0 l/m 15,1 km/h (3 Bft) S 175 0 min 0 W/m 13,1 C 15,9 C 15,1 km/h (3 Bft)
24.07.2013 07:15 18,9 C 69 % 1013,5 hPa 0,0 l/m 13,0 km/h (3 Bft) S-SO 165 0 min 0 W/m 13,1 C 16,5 C 13,0 km/h (3 Bft)
24.07.2013 07:30 18,9 C 69 % 1013,5 hPa 0,0 l/m 13,6 km/h (3 Bft) S-SO 155 0 min 0 W/m 13,1 C 16,3 C 13,6 km/h (3 Bft)
24.07.2013 07:45 18,9 C 69 % 1013,5 hPa 0,0 l/m 13,0 km/h (3 Bft) S-SO 160 0 min 0 W/m 13,1 C 16,5 C 13,0 km/h (3 Bft)
24.07.2013 08:00 19,1 C 69 % 1013,5 hPa 0,0 l/m 14,9 km/h (3 Bft) S 170 0 min 0 W/m 13,3 C 16,2 C 14,9 km/h (3 Bft)
24.07.2013 08:15 19,4 C 67 % 1013,5 hPa 0,0 l/m 14,1 km/h (3 Bft) S-SO 165 0 min 0 W/m 13,1 C 16,8 C 14,1 km/h (3 Bft)
24.07.2013 08:30 19,7 C 65 % 1013,5 hPa 0,0 l/m 19,1 km/h (3 Bft) S-SW 195 0 min 0 W/m 12,9 C 16,0 C 19,1 km/h (3 Bft)
24.07.2013 08:45 20,1 C 66 % 1013,5 hPa 0,0 l/m 11,9 km/h (2 Bft) S-SO 165 0 min 0 W/m 13,5 C 18,2 C 11,9 km/h (2 Bft)
24.07.2013 09:00 20,4 C 64 % 1012,5 hPa 0,0 l/m 15,9 km/h (3 Bft) S-SO 160 0 min 0 W/m 13,4 C 17,5 C 15,9 km/h (3 Bft)
24.07.2013 09:15 20,6 C 63 % 1012,5 hPa 0,0 l/m 16,5 km/h (3 Bft) S 180 0 min 0 W/m 13,3 C 17,7 C 16,5 km/h (3 Bft)
24.07.2013 09:30 20,9 C 64 % 1012,5 hPa 0,0 l/m 16,5 km/h (3 Bft) S 170 0 min 0 W/m 13,8 C 18,0 C 16,5 km/h (3 Bft)
24.07.2013 09:45 21,2 C 65 % 1012,5 hPa 0,0 l/m 14,6 km/h (3 Bft) S-SO 150 0 min 0 W/m 14,4 C 18,8 C 14,6 km/h (3 Bft)
24.07.2013 10:00 21,4 C 64 % 1012,5 hPa 0,0 l/m 17,0 km/h (3 Bft) S-SO 165 0 min 0 W/m 14,3 C 18,5 C 17,0 km/h (3 Bft)
24.07.2013 10:15 21,8 C 64 % 1012,5 hPa 0,0 l/m 18,9 km/h (3 Bft) S-SO 150 0 min 0 W/m 14,7 C 18,7 C 18,9 km/h (3 Bft)
24.07.2013 10:30 21,9 C 65 % 1012,5 hPa 0,0 l/m 18,2 km/h (3 Bft) S-SO 160 0 min 0 W/m 15,0 C 19,0 C 18,2 km/h (3 Bft)
24.07.2013 10:45 22,6 C 63 % 1012,5 hPa 0,0 l/m 20,8 km/h (4 Bft) S 175 0 min 0 W/m 15,2 C 19,4 C 20,8 km/h (4 Bft)
24.07.2013 11:00 23,0 C 62 % 1012,5 hPa 0,0 l/m 18,3 km/h (3 Bft) S-SO 155 0 min 0 W/m 15,3 C 20,3 C 18,3 km/h (3 Bft)
24.07.2013 11:15 23,6 C 60 % 1012,5 hPa 0,0 l/m 20,2 km/h (4 Bft) S 170 0 min 0 W/m 15,4 C 20,8 C 20,2 km/h (4 Bft)
24.07.2013 11:30 24,3 C 58 % 1012,5 hPa 0,0 l/m 19,0 km/h (3 Bft) S 180 0 min 0 W/m 15,5 C 21,9 C 19,0 km/h (3 Bft)
24.07.2013 11:45 24,8 C 57 % 1012,5 hPa 0,0 l/m 16,3 km/h (3 Bft) S-SW 195 0 min 0 W/m 15,7 C 22,9 C 16,3 km/h (3 Bft)
24.07.2013 11:59 25,2 C 56 % 1012,5 hPa 0,0 l/m 18,1 km/h (3 Bft) S-SO 160 0 min 0 W/m 15,8 C 23,1 C 18,1 km/h (3 Bft)
24.07.2013 12:15 25,9 C 57 % 1012,5 hPa 0,0 l/m 17,3 km/h (3 Bft) S-SO 160 0 min 0 W/m 16,7 C 24,1 C 17,3 km/h (3 Bft)
24.07.2013 12:30 26,7 C 54 % 1012,5 hPa 0,0 l/m 19,8 km/h (3 Bft) S 170 0 min 0 W/m 16,6 C 24,9 C 19,8 km/h (3 Bft)
24.07.2013 12:45 27,0 C 51 % 1012,5 hPa 0,0 l/m 16,3 km/h (3 Bft) S 170 0 min 0 W/m 16,0 C 25,6 C 16,3 km/h (3 Bft)
24.07.2013 13:00 27,3 C 51 % 1012,5 hPa 0,0 l/m 16,3 km/h (3 Bft) S-SO 165 0 min 0 W/m 16,3 C 26,0 C 16,3 km/h (3 Bft)
24.07.2013 13:15 27,6 C 49 % 1012,5 hPa 0,0 l/m 17,3 km/h (3 Bft) S-SO 165 0 min 0 W/m 15,9 C 26,2 C 17,3 km/h (3 Bft)
24.07.2013 13:30 27,8 C 49 % 1012,5 hPa 0,0 l/m 22,4 km/h (4 Bft) S 185 0 min 0 W/m 16,1 C 26,1 C 22,4 km/h (4 Bft)
24.07.2013 13:44 28,4 C 48 % 1012,5 hPa 0,0 l/m 19,8 km/h (3 Bft) S 170 0 min 0 W/m 16,3 C 27,1 C 19,8 km/h (3 Bft)
24.07.2013 14:00 28,5 C 46 % 1012,5 hPa 0,0 l/m 18,1 km/h (3 Bft) S-SO 165 0 min 0 W/m 15,7 C 27,3 C 18,1 km/h (3 Bft)
24.07.2013 14:15 28,4 C 50 % 1012,5 hPa 0,0 l/m 13,7 km/h (3 Bft) S 185 0 min 0 W/m 17,0 C 27,5 C 13,7 km/h (3 Bft)
24.07.2013 14:30 29,3 C 48 % 1012,5 hPa 0,0 l/m 15,3 km/h (3 Bft) S 180 0 min 0 W/m 17,1 C 28,5 C 15,3 km/h (3 Bft)
24.07.2013 14:45 29,0 C 47 % 1012,5 hPa 0,0 l/m 15,5 km/h (3 Bft) S-SO 160 0 min 0 W/m 16,5 C 28,1 C 15,5 km/h (3 Bft)
24.07.2013 15:00 28,8 C 50 % 1011,5 hPa 0,0 l/m 10,0 km/h (2 Bft) O-NO 70 0 min 0 W/m 17,3 C 28,4 C 10,0 km/h (2 Bft)
24.07.2013 15:15 28,2 C 53 % 1012,5 hPa 0,0 l/m 9,3 km/h (2 Bft) SO 140 0 min 0 W/m 17,7 C 27,8 C 9,3 km/h (2 Bft)
24.07.2013 15:29 28,1 C 55 % 1011,5 hPa 0,0 l/m 8,7 km/h (2 Bft) SO 140 0 min 0 W/m 18,2 C 27,8 C 8,7 km/h (2 Bft)
24.07.2013 15:45 28,6 C 53 % 1011,5 hPa 0,0 l/m 9,8 km/h (2 Bft) O 95 0 min 0 W/m 18,1 C 28,2 C 9,8 km/h (2 Bft)
24.07.2013 16:00 29,1 C 48 % 1012,5 hPa 0,0 l/m 13,5 km/h (3 Bft) W-SW 240 0 min 0 W/m 16,9 C 28,4 C 13,5 km/h (3 Bft)
24.07.2013 16:15 28,3 C 49 % 1012,5 hPa 0,0 l/m 18,6 km/h (3 Bft) W-NW 295 0 min 0 W/m 16,5 C 27,0 C 18,6 km/h (3 Bft)
24.07.2013 16:30 27,7 C 55 % 1012,5 hPa 0,0 l/m 17,2 km/h (3 Bft) W-NW 295 0 min 0 W/m 17,8 C 26,4 C 17,2 km/h (3 Bft)
24.07.2013 16:45 27,6 C 55 % 1012,5 hPa 0,0 l/m 16,8 km/h (3 Bft) NW 315 0 min 0 W/m 17,7 C 26,3 C 16,8 km/h (3 Bft)
24.07.2013 17:00 27,2 C 56 % 1012,5 hPa 0,0 l/m 13,6 km/h (3 Bft) N-NW 330 0 min 0 W/m 17,6 C 26,1 C 13,6 km/h (3 Bft)
24.07.2013 17:14 26,4 C 57 % 1012,5 hPa 0,0 l/m 18,0 km/h (3 Bft) N-NW 330 0 min 0 W/m 17,2 C 24,7 C 18,0 km/h (3 Bft)
24.07.2013 17:30 26,2 C 57 % 1012,5 hPa 0,0 l/m 15,2 km/h (3 Bft) N-NW 330 0 min 0 W/m 17,0 C 24,7 C 15,2 km/h (3 Bft)
24.07.2013 17:45 26,7 C 55 % 1012,5 hPa 0,0 l/m 15,2 km/h (3 Bft) NW 320 0 min 0 W/m 16,9 C 25,3 C 15,2 km/h (3 Bft)
24.07.2013 18:00 26,4 C 55 % 1012,5 hPa 0,0 l/m 14,2 km/h (3 Bft) NW 325 0 min 0 W/m 16,6 C 25,1 C 14,2 km/h (3 Bft)
24.07.2013 18:15 25,9 C 57 % 1012,5 hPa 0,0 l/m 16,8 km/h (3 Bft) W-NW 295 0 min 0 W/m 16,7 C 24,2 C 16,8 km/h (3 Bft)
24.07.2013 18:30 25,4 C 58 % 1012,5 hPa 0,0 l/m 11,3 km/h (2 Bft) NW 315 0 min 0 W/m 16,5 C 24,4 C 11,3 km/h (2 Bft)
24.07.2013 18:45 24,9 C 59 % 1011,5 hPa 0,0 l/m 17,3 km/h (3 Bft) N-NW 330 0 min 0 W/m 16,3 C 22,9 C 17,3 km/h (3 Bft)
24.07.2013 19:00 24,4 C 59 % 1011,5 hPa 0,0 l/m 14,1 km/h (3 Bft) NW 320 0 min 0 W/m 15,9 C 22,7 C 14,1 km/h (3 Bft)
24.07.2013 19:15 24,2 C 60 % 1011,5 hPa 0,0 l/m 12,7 km/h (3 Bft) N-NW 340 0 min 0 W/m 15,9 C 22,7 C 12,7 km/h (3 Bft)
24.07.2013 19:30 24,0 C 63 % 1012,5 hPa 0,0 l/m 13,0 km/h (3 Bft) NW 325 0 min 0 W/m 16,5 C 22,4 C 13,0 km/h (3 Bft)
24.07.2013 19:45 23,7 C 64 % 1012,5 hPa 0,0 l/m 12,6 km/h (3 Bft) W 270 0 min 0 W/m 16,5 C 22,2 C 12,6 km/h (3 Bft)
24.07.2013 20:00 23,2 C 68 % 1012,5 hPa 0,6 l/m 5,4 km/h (2 Bft) W-SW 250 0 min 0 W/m 17,0 C 23,2 C 5,4 km/h (2 Bft)
24.07.2013 20:15 22,8 C 70 % 1012,5 hPa 0,0 l/m 2,8 km/h (1 Bft) S-SW 210 0 min 0 W/m 17,0 C 22,8 C 2,8 km/h (1 Bft)
24.07.2013 20:30 22,5 C 72 % 1013,5 hPa 0,0 l/m 4,2 km/h (1 Bft) S 185 0 min 0 W/m 17,2 C 22,5 C 4,2 km/h (1 Bft)
24.07.2013 20:45 22,2 C 74 % 1013,5 hPa 0,0 l/m 7,6 km/h (2 Bft) S-SO 165 0 min 0 W/m 17,3 C 21,8 C 7,6 km/h (2 Bft)
24.07.2013 21:00 21,8 C 74 % 1013,5 hPa 0,0 l/m 9,5 km/h (2 Bft) S-SO 160 0 min 0 W/m 17,0 C 20,8 C 9,5 km/h (2 Bft)
24.07.2013 21:15 21,4 C 76 % 1013,5 hPa 0,0 l/m 1,1 km/h (1 Bft) S-SO 150 0 min 0 W/m 17,0 C 21,4 C 1,1 km/h (1 Bft)
24.07.2013 21:30 21,1 C 77 % 1013,5 hPa 0,0 l/m 4,5 km/h (1 Bft) S-SO 150 0 min 0 W/m 16,9 C 21,1 C 4,5 km/h (1 Bft)
24.07.2013 21:45 20,8 C 77 % 1013,5 hPa 0,0 l/m 0,4 km/h (0 Bft) SO 140 0 min 0 W/m 16,6 C 20,8 C 0,4 km/h (0 Bft)
24.07.2013 22:00 20,6 C 77 % 1013,5 hPa 0,0 l/m 0,0 km/h (0 Bft) SO 140 0 min 0 W/m 16,4 C 20,6 C 0,0 km/h (0 Bft)
24.07.2013 22:15 20,8 C 77 % 1013,5 hPa 0,0 l/m 4,4 km/h (1 Bft) SW 215 0 min 0 W/m 16,6 C 20,8 C 4,4 km/h (1 Bft)
24.07.2013 22:30 20,5 C 77 % 1013,5 hPa 0,0 l/m 0,0 km/h (0 Bft) SW 215 0 min 0 W/m 16,3 C 20,5 C 0,0 km/h (0 Bft)
24.07.2013 22:45 20,3 C 77 % 1013,5 hPa 0,0 l/m 0,3 km/h (0 Bft) SW 215 0 min 0 W/m 16,1 C 20,3 C 0,3 km/h (0 Bft)
24.07.2013 23:00 20,0 C 78 % 1013,5 hPa 0,0 l/m 0,0 km/h (0 Bft) SW 215 0 min 0 W/m 16,0 C 20,0 C 0,0 km/h (0 Bft)
24.07.2013 23:15 19,9 C 79 % 1013,5 hPa 0,0 l/m 0,9 km/h (0 Bft) SW 215 0 min 0 W/m 16,1 C 19,9 C 0,9 km/h (0 Bft)
24.07.2013 23:30 19,9 C 79 % 1013,5 hPa 0,0 l/m 0,4 km/h (0 Bft) SO 135 0 min 0 W/m 16,1 C 19,9 C 0,4 km/h (0 Bft)
24.07.2013 23:45 19,8 C 80 % 1013,5 hPa 0,0 l/m 0,0 km/h (0 Bft) O 90 0 min 0 W/m 16,2 C 19,8 C 0,0 km/h (0 Bft)
_ Min-Zeit 06:30 14:00 15:00 - 22:00 - - - - 06:30 06:15 22:00
Minimum _ 18,8 C 46 % 1011,5 hPa - 0,0 km/h (0 Bft) - - - - 12,8 C 14,7 C 0,0 km/h (0 Bft)
_ Max-Zeit 14:30 23:45 00:15 20:00 03:14 - - 00:15 00:15 15:29 14:30 03:14
Maximum _ 29,3 C 80 % 1013,5 hPa 0,6 l/m 23,0 km/h
S (4 Bft)
- - 0 min 0 W/m 18,2 C 28,5 C 23,0 km/h
S (4 Bft)
Durchschnitt _ 22,8 C 64 % 1012,9 hPa #0,6 l/m 13,7 km/h (3 Bft) S - #0 min. 0 W/m 15,4 C 20,9 C 13,7 km/h (3 Bft)
copyright by Holger Just